Home > Weather > Bratislava > Past weeks

Flag for Slovakia Past Weather in Bratislava, Slovakia — Yesterday and Last 2 Weeks

Now
59 °F

Clear.


Feels Like: 57 °F
Forecast: 56 / 72 °F
Wind: 9 mph from West

Location: Bratislava Ivanka

Current Time: May 26, 2016 at 2:46:56 AM

Latest Report: May 26, 2016 at 2:00 AM


Visibility: 10 mi

Pressure: 29.92 "Hg

Humidity: 82%

Dew Point: 54 °F

Location of BratislavaLocation

Past Weather in Bratislava — Graph

°F

Bratislava Temperature Yesterday

Maximum temperature yesterday: 72 °F (at 4:00 PM)
Minimum temperature yesterday: 55 °F (at 12:00 AM)
Average temperature yesterday: 63 °F

High & Low Weather Summary for the Past Weeks

 TemperatureHumidityPressure
High81 °F (May 23, 3:00 PM)100% (May 12, 11:30 PM)30.12 "Hg (May 12, 11:30 PM)
Low43 °F (May 17, 5:30 AM)32% (May 18, 3:30 PM)29.33 "Hg (May 13, 5:00 AM)
Average59 °F67%29.85 "Hg
* Reported May 11 1:00 AM — May 26 1:30 AM, Bratislava, Weather by CustomWeather, © 2016

Note: Actual official high and low records may vary slightly from our data, if they occured in-between our weather recording intervals... More about our weather records

Advertising

Bratislava Weather History for the Previous 24 Hours

Scroll right to see more
 ConditionsComfort  
Time TempWeatherWind HumidityBarometerVisibility
1:30 AM
Thu, May 26
61 °FClear.7 mph72%29.92 "Hg10 mi
1:00 AM61 °FClear.12 mph77%29.92 "Hg10 mi
12:30 AM61 °FClear.10 mph77%29.89 "Hg10 mi
12:00 AM63 °FPassing clouds.10 mph73%29.89 "HgN/A
11:30 PM
Wed, May 25
63 °FPassing clouds.6 mph73%29.89 "HgN/A
11:00 PM63 °FPassing clouds.9 mph73%29.89 "HgN/A
10:30 PM63 °FClear.6 mph73%29.92 "Hg10 mi
10:00 PM63 °FPassing clouds.7 mph73%29.89 "HgN/A
9:30 PM64 °FSunny.14 mph68%29.89 "Hg10 mi
9:00 PM64 °FSunny.15 mph68%29.89 "Hg10 mi
8:30 PM64 °FPassing clouds.16 mph68%29.86 "HgN/A
8:00 PM66 °FSunny.18 mph68%29.86 "Hg10 mi
7:30 PM68 °FScattered clouds.18 mph64%29.86 "HgN/A
7:00 PM68 °FScattered clouds.17 mph64%29.86 "HgN/A
6:30 PM70 °FScattered clouds.18 mph60%29.86 "HgN/A
6:00 PM70 °FPassing clouds.16 mph60%29.86 "HgN/A
5:30 PM70 °FPassing clouds.14 mph64%29.83 "HgN/A
5:00 PM68 °FPassing clouds.17 mph64%29.83 "HgN/A
4:30 PM70 °FPassing clouds.17 mph64%29.83 "HgN/A
4:00 PM72 °FPassing clouds.17 mph61%29.83 "HgN/A
3:30 PM70 °FPassing clouds.20 mph64%29.86 "HgN/A
3:00 PM70 °FPassing clouds.17 mph64%29.86 "HgN/A
2:30 PM70 °FPassing clouds.16 mph64%29.86 "HgN/A
2:00 PM70 °FPassing clouds.16 mph64%29.86 "HgN/A
1:30 PM68 °FPassing clouds.16 mph64%29.86 "HgN/A
1:00 PM68 °FPassing clouds.17 mph69%29.86 "HgN/A
12:30 PM68 °FPassing clouds.17 mph64%29.86 "HgN/A
12:00 PM66 °FPassing clouds.18 mph68%29.86 "HgN/A
11:30 AM64 °FPassing clouds.18 mph73%29.86 "HgN/A
11:00 AM64 °FPassing clouds.18 mph73%29.86 "HgN/A
10:30 AM63 °FPassing clouds.21 mph77%29.86 "HgN/A
10:00 AM63 °FPassing clouds.16 mph73%29.86 "HgN/A
9:30 AM61 °FPassing clouds.13 mph77%29.86 "HgN/A
9:00 AM59 °FPassing clouds.21 mph77%29.83 "HgN/A
8:30 AM59 °FPassing clouds.21 mph77%29.83 "HgN/A
8:00 AM59 °FPassing clouds.20 mph77%29.83 "HgN/A
7:30 AM59 °FPassing clouds.20 mph77%29.80 "HgN/A
7:00 AM57 °FPassing clouds.20 mph82%29.80 "HgN/A
6:30 AM57 °FPassing clouds.18 mph82%29.80 "HgN/A
6:00 AM57 °FPassing clouds.21 mph77%29.77 "HgN/A
5:30 AM55 °FPassing clouds.21 mph82%29.77 "HgN/A
5:00 AM57 °FPassing clouds.21 mph77%29.77 "HgN/A
4:30 AM57 °FPassing clouds.20 mph77%29.77 "HgN/A
4:00 AM57 °FPassing clouds.21 mph77%29.77 "HgN/A
3:30 AM55 °FPassing clouds.21 mph82%29.74 "HgN/A
3:00 AM55 °FPassing clouds.23 mph82%29.77 "HgN/A
2:30 AM55 °FPassing clouds.21 mph82%29.77 "HgN/A
2:00 AM55 °FPassing clouds.21 mph82%29.74 "HgN/A
Weather by CustomWeather, © 2016

See weather overviewHow to use our weather pages